Flag for Guadeloupe Weather past 2 weeks in Basse-Terre, Guadeloupe

Now
75 °F

Passing clouds.


Feels Like: 75 °F
Forecast: N/A
Wind: No wind

Location: Le Raizet - Guadeloupe

Current Time: Dec 17, 2014 at 7:43:36 PM

Latest Report: Dec 17, 2014 at 7:00 PM


Visibility: N/A

Pressure: 29.98 "Hg

Humidity: 89%

Dew point: 72 °F

Location of Basse-TerreLocation

Historic Weather in Basse-Terre — Graph

°F

Basse-Terre temperature yesterday

Maximum temperature yesterday: 86 °F (at 1:00 PM)
Minimum temperature yesterday: 68 °F (at 4:00 AM)
Average temperature yesterday: 76 °F

Past Weeks' High & Low Weather Summary

 TemperatureHumidityPressure
High86 °F (Dec 3, 11:00 AM)100% (Dec 3, 2:00 AM)30.04 "Hg (Dec 3, 2:00 AM)
Low68 °F (Dec 13, 3:30 AM)20% (Dec 17, 4:00 PM)29.77 "Hg (Dec 6, 3:30 PM)
Average77 °F81%29.92 "Hg
* Reported Dec 2 6:30 PM — Dec 17 6:34 PM, Basse-Terre, Weather by CustomWeather, © 2014

Note: Actual official high and low records may vary slightly from our data, if they occured in-between our weather recording intervals... More about our weather records

Advertising

Basse-Terre weather history for previous 24 hours

 ConditionsComfort  
Time TempWeatherWind HumidityBarometerVisibility
6:34 PM
Dec 17
77 °FPassing clouds.No wind83%29.95 "HgN/A
6:00 PM77 °FPassing clouds.No wind79%29.95 "HgN/A
5:30 PM79 °FPassing clouds.No wind74%29.95 "HgN/A
5:00 PM79 °FPassing clouds.No wind70%29.95 "HgN/A
4:36 PM81 °FScattered clouds.2 mph70%29.92 "HgN/A
4:00 PM81 °FSprinkles. Scattered clouds.6 mph20%29.92 "Hg1 mi
3:46 PM82 °FScattered clouds.8 mph66%29.92 "HgN/A
3:00 PM82 °FScattered clouds.3 mph66%29.92 "HgN/A
2:30 PM79 °FScattered clouds.2 mph79%29.92 "HgN/A
2:00 PM77 °FScattered clouds.7 mph83%29.95 "HgN/A
1:37 PM77 °FSprinkles. Scattered clouds.6 mph79%29.95 "Hg5 mi
1:00 PM77 °FSprinkles. Scattered clouds.10 mph79%29.95 "Hg5 mi
12:30 PM86 °FScattered clouds.3 mph59%29.98 "HgN/A
12:00 PM86 °FScattered clouds.5 mph59%29.98 "HgN/A
11:49 AM84 °FScattered clouds.6 mph62%30.01 "HgN/A
11:04 AM84 °FScattered clouds.6 mph62%30.01 "HgN/A
10:30 AM82 °FScattered clouds.6 mph66%30.04 "HgN/A
10:00 AM82 °FScattered clouds.5 mph66%30.04 "HgN/A
9:30 AM82 °FScattered clouds.3 mph66%30.04 "HgN/A
9:00 AM81 °FPartly sunny.1 mph70%30.04 "HgN/A
8:30 AM77 °FPartly sunny.No wind79%30.04 "HgN/A
8:00 AM75 °FPartly sunny.No wind89%30.01 "HgN/A
7:30 AM73 °FScattered clouds.No wind94%30.01 "HgN/A
7:00 AM72 °FClear.2 mph94%29.98 "HgN/A
6:30 AM70 °FClear.No wind100%29.98 "HgN/A
6:00 AM70 °FClear.2 mph100%29.98 "HgN/A
5:30 AM70 °FClear.1 mph100%29.98 "HgN/A
5:00 AM70 °FClear.No wind100%29.98 "HgN/A
4:30 AM70 °FClear.No wind94%29.98 "HgN/A
4:00 AM70 °FOvercast.No wind94%29.95 "HgN/A
3:30 AM70 °FClear.No wind94%29.95 "HgN/A
3:00 AM70 °FClear.1 mph94%29.98 "HgN/A
2:30 AM70 °FClear.No wind94%29.98 "HgN/A
2:00 AM70 °FClear.2 mph94%29.98 "HgN/A
1:30 AM70 °FPassing clouds.1 mph94%29.98 "HgN/A
1:00 AM70 °FClear.2 mph94%30.01 "HgN/A
12:30 AM70 °FClear.2 mph94%30.01 "HgN/A
12:00 AM70 °FClear.1 mph94%30.01 "HgN/A
11:30 PM
Dec 16
70 °FClear.No wind94%30.01 "HgN/A
11:00 PM70 °FClear.No wind94%30.01 "HgN/A
10:30 PM72 °FClear.No wind88%30.04 "HgN/A
10:00 PM72 °FClear.No wind88%30.04 "HgN/A
9:30 PM72 °FClear.No wind88%30.04 "HgN/A
9:00 PM72 °FClear.2 mph88%30.04 "HgN/A
8:30 PM73 °FClear.No wind83%30.01 "HgN/A
8:00 PM73 °FClear.No wind83%30.01 "HgN/A
7:30 PM75 °FClear.2 mph78%30.01 "HgN/A
7:00 PM77 °FPassing clouds.2 mph74%29.98 "HgN/A
Weather by CustomWeather, © 2014

See weather overviewHow to use our weather pages